Location: Epalinges
(46.5518°N, 6.6683°E)
Time: 20:13:52
(UTC+00:00)

USA 307 - Pass Details

Date: 20 June 2021
Orbit: 565 x 576 km, 54.0° (Epoch: 17 July)

Event Time Altitude Azimuth Distance (km) Brightness Sun altitude
Exits shadow 02:13:23 12° 248° (WSW) 1,711 4.8 -11.4°
Maximum altitude 02:17:12 68° 331° (NNW) 614 3.1 -11.0°
Drops below altitude 10° 02:21:27 10° 55° (NE) 1,868 6.9 -10.5°
Sets 02:23:42 0° 58° (ENE) 2,766 7.9 -10.3°
